{"data":{"norad_id":28890,"epoch":"2026-05-25T04:17:24.697248Z","epoch_age_seconds":73298,"freshness":"FRESH","line1":"1 28890U 05043A   26145.17875807  .00000017  00000+0  12873-4 0  9992","line2":"2 28890  98.2878 278.2673 0014602 359.0693   1.0479 14.63515476 97283","mean_motion":14.63515476,"eccentricity":0.0014602,"inclination_deg":98.2878,"raan_deg":278.2673,"arg_perigee_deg":359.0693,"mean_anomaly_deg":1.0479,"bstar":1.2873e-5,"rev_number":9728,"period_min":98.39321986097,"perigee_km":671.53657755895,"apogee_km":692.15455063914,"semimajor_km":7059.982564099,"source":"CELESTRAK","updated_at":"2026-05-25T13:38:13.162320Z"}}